| time (UTC) | temp F | wind direction | speed MPH | gust MPH | rain 1hr in | rain 24hr in | rain mn in | humidity % | barometer mb |
| 20260904154516 | 86 | 338 | 5.0 | 12.0 | 0.00 | 0.00 | 0.00 | 52 | 1011.6 |
| 20260904154016 | 86 | 315 | 5.0 | 11.0 | 0.00 | 0.00 | 0.00 | 53 | 1011.7 |
| 20260904153536 | 86 | 315 | 7.0 | 15.0 | 0.00 | 0.00 | 0.00 | 53 | 1011.8 |
| 20260904153058 | 86 | 315 | 6.0 | 15.0 | 0.00 | 0.00 | 0.00 | 53 | 1011.7 |
| 20260904152538 | 86 | 315 | 6.0 | 13.0 | 0.00 | 0.00 | 0.00 | 54 | 1011.8 |
| 20260904152016 | 86 | 315 | 4.0 | 11.0 | 0.00 | 0.00 | 0.00 | 55 | 1011.8 |
| 20260904151516 | 86 | 315 | 5.0 | 12.0 | 0.00 | 0.00 | 0.00 | 55 | 1011.9 |
| 20260904151016 | 86 | 338 | 4.0 | 11.0 | 0.00 | 0.00 | 0.00 | 55 | 1011.9 |
| 20260904150517 | 86 | 315 | 3.0 | 7.0 | 0.00 | 0.00 | 0.00 | 58 | 1011.8 |
| 20260904150017 | 86 | 315 | 4.0 | 10.0 | 0.00 | 0.00 | 0.00 | 58 | 1011.9 |
| 20260904145516 | 86 | 270 | 2.0 | 6.0 | 0.00 | 0.00 | 0.00 | 59 | 1011.8 |
| 20260904145017 | 85 | 315 | 5.0 | 10.0 | 0.00 | 0.00 | 0.00 | 59 | 1011.8 |
| 20260904144517 | 85 | 315 | 4.0 | 11.0 | 0.00 | 0.00 | 0.00 | 60 | 1011.9 |
| 20260904144017 | 85 | 0 | 4.0 | 8.0 | 0.00 | 0.00 | 0.00 | 61 | 1011.8 |
| 20260904143517 | 85 | 23 | 2.0 | 7.0 | 0.00 | 0.00 | 0.00 | 62 | 1011.9 |
| 20260904143016 | 85 | 338 | 2.0 | 7.0 | 0.00 | 0.00 | 0.00 | 62 | 1011.8 |
| 20260904142516 | 84 | 338 | 3.0 | 9.0 | 0.00 | 0.00 | 0.00 | 62 | 1011.8 |
| 20260904142016 | 84 | 0 | 4.0 | 11.0 | 0.00 | 0.00 | 0.00 | 63 | 1011.8 |
| 20260904141517 | 83 | 0 | 4.0 | 10.0 | 0.00 | 0.00 | 0.00 | 64 | 1011.6 |
| 20260904141016 | 83 | 0 | 3.0 | 8.0 | 0.00 | 0.00 | 0.00 | 65 | 1011.6 |
| 20260904140516 | 83 | 338 | 4.0 | 9.0 | 0.00 | 0.00 | 0.00 | 66 | 1011.7 |
| 20260904140016 | 83 | 293 | 5.0 | 10.0 | 0.00 | 0.00 | 0.00 | 66 | 1011.8 |
| 20260904135637 | 83 | 315 | 3.0 | 10.0 | 0.00 | 0.00 | 0.00 | 66 | 1011.7 |
| 20260904135056 | 82 | 338 | 3.0 | 8.0 | 0.00 | 0.00 | 0.00 | 67 | 1011.6 |
| 20260904134516 | 82 | 338 | 4.0 | 9.0 | 0.00 | 0.00 | 0.00 | 68 | 1011.5 |
| 20260904134016 | 82 | 0 | 5.0 | 12.0 | 0.00 | 0.00 | 0.00 | 69 | 1011.4 |
| 20260904133516 | 82 | 315 | 5.0 | 11.0 | 0.00 | 0.00 | 0.00 | 69 | 1011.5 |
| 20260904133016 | 81 | 315 | 6.0 | 11.0 | 0.00 | 0.00 | 0.00 | 70 | 1011.5 |
| 20260904132516 | 81 | 315 | 4.0 | 9.0 | 0.00 | 0.00 | 0.00 | 71 | 1011.4 |
| 20260904132017 | 81 | 315 | 4.0 | 11.0 | 0.00 | 0.00 | 0.00 | 73 | 1011.5 |
| 20260904131516 | 81 | 338 | 4.0 | 8.0 | 0.00 | 0.00 | 0.00 | 74 | 1011.5 |
| 20260904131037 | 80 | 293 | 4.0 | 9.0 | 0.00 | 0.00 | 0.00 | 75 | 1011.5 |
| 20260904130516 | 80 | 293 | 6.0 | 12.0 | 0.00 | 0.00 | 0.00 | 76 | 1011.5 |
| 20260904130016 | 80 | 293 | 4.0 | 10.0 | 0.00 | 0.00 | 0.00 | 76 | 1011.6 |
| 20260904125557 | 80 | 315 | 5.0 | 11.0 | 0.00 | 0.00 | 0.00 | 77 | 1011.5 |
| 20260904125016 | 79 | 315 | 6.0 | 10.0 | 0.00 | 0.00 | 0.00 | 78 | 1011.5 |
| 20260904124557 | 79 | 338 | 2.0 | 8.0 | 0.00 | 0.00 | 0.00 | 80 | 1011.4 |
| 20260904124017 | 79 | 315 | 5.0 | 13.0 | 0.00 | 0.00 | 0.00 | 81 | 1011.4 |
| 20260904123516 | 78 | 315 | 5.0 | 10.0 | 0.00 | 0.00 | 0.00 | 81 | 1011.4 |
| 20260904123016 | 78 | 338 | 4.0 | 11.0 | 0.00 | 0.00 | 0.00 | 82 | 1011.4 |
| 20260904122517 | 78 | 315 | 5.0 | 11.0 | 0.00 | 0.00 | 0.00 | 83 | 1011.4 |
| 20260904122017 | 78 | 293 | 5.0 | 12.0 | 0.00 | 0.00 | 0.00 | 83 | 1011.3 |
| 20260904121516 | 78 | 315 | 5.0 | 10.0 | 0.00 | 0.00 | 0.00 | 84 | 1011.2 |
| 20260904121037 | 78 | 315 | 5.0 | 11.0 | 0.00 | 0.00 | 0.00 | 84 | 1011.3 |
| 20260904120536 | 78 | 315 | 4.0 | 12.0 | 0.00 | 0.00 | 0.00 | 85 | 1011.1 |
| 20260904120016 | 77 | 315 | 5.0 | 12.0 | 0.00 | 0.00 | 0.00 | 85 | 1011.2 |
| 20260904115516 | 77 | 315 | 5.0 | 12.0 | 0.00 | 0.00 | 0.00 | 86 | 1011.3 |
| 20260904115036 | 77 | 315 | 6.0 | 10.0 | 0.00 | 0.00 | 0.00 | 86 | 1011.3 |
| 20260904114517 | 77 | 315 | 5.0 | 12.0 | 0.00 | 0.00 | 0.00 | 86 | 1011.4 |
| 20260904114036 | 77 | 315 | 4.0 | 10.0 | 0.00 | 0.00 | 0.00 | 87 | 1011.3 |
| 20260904113516 | 77 | 0 | 3.0 | 8.0 | 0.00 | 0.00 | 0.00 | 87 | 1011.3 |
| 20260904113016 | 76 | 315 | 4.0 | 10.0 | 0.00 | 0.00 | 0.00 | 87 | 1011.2 |
| 20260904112517 | 76 | 315 | 4.0 | 10.0 | 0.00 | 0.00 | 0.00 | 87 | 1011.1 |
| 20260904112016 | 76 | 315 | 4.0 | 11.0 | 0.00 | 0.00 | 0.00 | 88 | 1011.1 |
| 20260904111517 | 76 | 315 | 3.0 | 8.0 | 0.00 | 0.00 | 0.00 | 88 | 1011.0 |
| 20260904111036 | 76 | 315 | 3.0 | 8.0 | 0.00 | 0.00 | 0.00 | 88 | 1011.0 |
| 20260904110516 | 76 | 315 | 3.0 | 6.0 | 0.00 | 0.00 | 0.00 | 88 | 1011.1 |
| 20260904110017 | 76 | 315 | 3.0 | 8.0 | 0.00 | 0.00 | 0.00 | 88 | 1011.1 |
| 20260904105516 | 76 | 315 | 2.0 | 6.0 | 0.00 | 0.00 | 0.00 | 88 | 1010.9 |
| 20260904105016 | 76 | 315 | 3.0 | 9.0 | 0.00 | 0.00 | 0.00 | 88 | 1010.9 |
| 20260904104516 | 76 | 338 | 3.0 | 7.0 | 0.00 | 0.00 | 0.00 | 88 | 1010.9 |
| 20260904104016 | 76 | 315 | 2.0 | 5.0 | 0.00 | 0.00 | 0.00 | 88 | 1010.8 |
| 20260904103516 | 76 | 315 | 3.0 | 8.0 | 0.00 | 0.00 | 0.00 | 88 | 1010.8 |
| 20260904103016 | 76 | 315 | 3.0 | 5.0 | 0.00 | 0.00 | 0.00 | 88 | 1010.7 |
| 20260904102516 | 76 | 270 | 2.0 | 6.0 | 0.00 | 0.00 | 0.00 | 88 | 1010.7 |
| 20260904102016 | 76 | 270 | 2.0 | 4.0 | 0.00 | 0.00 | 0.00 | 87 | 1010.7 |
| 20260904101516 | 76 | 293 | 2.0 | 4.0 | 0.00 | 0.00 | 0.00 | 87 | 1010.7 |
| 20260904101017 | 76 | 270 | 1.0 | 3.0 | 0.00 | 0.00 | 0.00 | 87 | 1010.7 |
| 20260904100516 | 76 | 0.0 | 2.0 | 0.00 | 0.00 | 0.00 | 87 | 1010.7 | |
| 20260904100016 | 76 | 270 | 1.0 | 4.0 | 0.00 | 0.00 | 0.00 | 87 | 1010.7 |
| 20260904095516 | 76 | 270 | 2.0 | 6.0 | 0.00 | 0.00 | 0.00 | 87 | 1010.7 |
| 20260904095016 | 76 | 248 | 3.0 | 9.0 | 0.00 | 0.00 | 0.00 | 86 | 1010.7 |
| 20260904094516 | 76 | 270 | 4.0 | 7.0 | 0.00 | 0.00 | 0.00 | 86 | 1010.6 |
| 20260904094016 | 76 | 293 | 3.0 | 8.0 | 0.00 | 0.00 | 0.00 | 86 | 1010.6 |
| 20260904093537 | 76 | 270 | 4.0 | 8.0 | 0.00 | 0.00 | 0.00 | 86 | 1010.6 |
| 20260904093017 | 76 | 270 | 4.0 | 9.0 | 0.00 | 0.00 | 0.00 | 85 | 1010.5 |
| 20260904092516 | 76 | 270 | 3.0 | 8.0 | 0.00 | 0.00 | 0.00 | 85 | 1010.5 |
| 20260904092016 | 76 | 270 | 3.0 | 7.0 | 0.00 | 0.00 | 0.00 | 85 | 1010.5 |
| 20260904091517 | 76 | 270 | 3.0 | 6.0 | 0.00 | 0.00 | 0.00 | 85 | 1010.6 |
| 20260904091035 | 76 | 248 | 3.0 | 7.0 | 0.00 | 0.00 | 0.00 | 84 | 1010.5 |
| 20260904090516 | 76 | 248 | 2.0 | 5.0 | 0.00 | 0.00 | 0.00 | 84 | 1010.5 |
| 20260904090017 | 77 | 270 | 2.0 | 4.0 | 0.00 | 0.00 | 0.00 | 84 | 1010.6 |
| 20260904085557 | 77 | 315 | 3.0 | 7.0 | 0.00 | 0.00 | 0.00 | 84 | 1010.5 |
| 20260904085018 | 77 | 270 | 3.0 | 6.0 | 0.00 | 0.00 | 0.00 | 84 | 1010.5 |
| 20260904084517 | 77 | 270 | 1.0 | 6.0 | 0.00 | 0.00 | 0.00 | 84 | 1010.6 |
| 20260904084017 | 77 | 315 | 3.0 | 8.0 | 0.00 | 0.00 | 0.00 | 83 | 1010.5 |
| 20260904083516 | 77 | 270 | 4.0 | 8.0 | 0.00 | 0.01 | 0.00 | 83 | 1010.4 |
| 20260904083016 | 77 | 270 | 3.0 | 7.0 | 0.00 | 0.01 | 0.00 | 83 | 1010.6 |
| 20260904082516 | 77 | 338 | 2.0 | 6.0 | 0.00 | 0.01 | 0.00 | 83 | 1010.7 |
| 20260904082016 | 77 | 270 | 1.0 | 3.0 | 0.00 | 0.01 | 0.00 | 83 | 1010.6 |
| 20260904081556 | 77 | 293 | 1.0 | 4.0 | 0.00 | 0.01 | 0.00 | 82 | 1010.6 |
| 20260904081016 | 77 | 293 | 3.0 | 6.0 | 0.00 | 0.01 | 0.00 | 82 | 1010.5 |
| 20260904080515 | 77 | 293 | 3.0 | 8.0 | 0.00 | 0.01 | 0.00 | 82 | 1010.5 |
| 20260904080016 | 77 | 293 | 2.0 | 4.0 | 0.00 | 0.01 | 0.00 | 82 | 1010.6 |
| 20260904075537 | 77 | 293 | 1.0 | 5.0 | 0.00 | 0.01 | 0.00 | 82 | 1010.6 |
| 20260904075037 | 77 | 315 | 1.0 | 3.0 | 0.00 | 0.01 | 0.00 | 82 | 1010.6 |
| 20260904074517 | 77 | 270 | 2.0 | 4.0 | 0.00 | 0.01 | 0.00 | 82 | 1010.5 |
| 20260904074016 | 77 | 315 | 3.0 | 7.0 | 0.00 | 0.01 | 0.00 | 81 | 1010.4 |
| 20260904073516 | 78 | 248 | 3.0 | 5.0 | 0.00 | 0.01 | 0.00 | 81 | 1010.2 |
| 20260904073017 | 78 | 248 | 3.0 | 5.0 | 0.00 | 0.02 | 0.00 | 81 | 1010.2 |
| 20260904072536 | 78 | 203 | 3.0 | 5.0 | 0.00 | 0.02 | 0.00 | 80 | 1010.0 |
| 20260904072016 | 78 | 203 | 1.0 | 3.0 | 0.00 | 0.03 | 0.00 | 80 | 1009.9 |
| 20260904071517 | 78 | 203 | 1.0 | 2.0 | 0.00 | 0.03 | 0.00 | 80 | 1010.0 |
| 20260904071016 | 78 | 203 | 3.0 | 7.0 | 0.00 | 0.04 | 0.00 | 79 | 1010.1 |
| 20260904070517 | 79 | 248 | 3.0 | 7.0 | 0.00 | 0.04 | 0.00 | 79 | 1010.4 |
| 20260904070016 | 79 | 270 | 3.0 | 8.0 | 0.00 | 0.05 | 0.00 | 79 | 1010.4 |
| 20260904065517 | 79 | 315 | 3.0 | 8.0 | 0.00 | 0.05 | 0.00 | 79 | 1010.2 |
| 20260904065016 | 79 | 338 | 3.0 | 7.0 | 0.00 | 0.05 | 0.00 | 79 | 1010.2 |
| 20260904064515 | 79 | 270 | 5.0 | 10.0 | 0.00 | 0.06 | 0.00 | 79 | 1010.4 |
| 20260904064017 | 80 | 248 | 6.0 | 13.0 | 0.00 | 0.06 | 0.00 | 78 | 1010.5 |
| 20260904063537 | 80 | 248 | 6.0 | 11.0 | 0.00 | 0.06 | 0.00 | 78 | 1010.6 |
| 20260904063036 | 81 | 270 | 7.0 | 16.0 | 0.00 | 0.06 | 0.00 | 78 | 1010.7 |
| 20260904062516 | 81 | 270 | 7.0 | 16.0 | 0.00 | 0.06 | 0.00 | 78 | 1010.8 |
| 20260904062015 | 81 | 270 | 6.0 | 14.0 | 0.00 | 0.07 | 0.00 | 79 | 1010.8 |
| 20260904061515 | 81 | 270 | 6.0 | 14.0 | 0.00 | 0.07 | 0.00 | 79 | 1010.7 |
| 20260904061017 | 81 | 293 | 6.0 | 12.0 | 0.00 | 0.07 | 0.00 | 80 | 1010.8 |
| 20260904060538 | 81 | 248 | 3.0 | 7.0 | 0.00 | 0.07 | 0.00 | 80 | 1010.7 |
| 20260904060015 | 81 | 248 | 4.0 | 9.0 | 0.00 | 0.07 | 0.00 | 81 | 1010.6 |
| 20260904055516 | 81 | 248 | 2.0 | 5.0 | 0.00 | 0.07 | 0.00 | 81 | 1010.6 |
| 20260904055017 | 81 | 293 | 1.0 | 4.0 | 0.00 | 0.07 | 0.00 | 82 | 1010.7 |
| 20260904054515 | 81 | 248 | 3.0 | 5.0 | 0.00 | 0.08 | 0.00 | 82 | 1011.0 |
| 20260904054015 | 81 | 248 | 3.0 | 7.0 | 0.00 | 0.08 | 0.00 | 82 | 1011.1 |
| 20260904053516 | 81 | 248 | 2.0 | 4.0 | 0.00 | 0.09 | 0.00 | 82 | 1011.2 |
| 20260904053016 | 81 | 248 | 4.0 | 7.0 | 0.00 | 0.10 | 0.00 | 83 | 1011.4 |
| 20260904052515 | 81 | 225 | 1.0 | 4.0 | 0.00 | 0.10 | 0.00 | 83 | 1011.5 |
| 20260904052036 | 81 | 248 | 2.0 | 6.0 | 0.00 | 0.10 | 0.00 | 83 | 1011.3 |
| 20260904051515 | 81 | 225 | 3.0 | 6.0 | 0.00 | 0.10 | 0.00 | 83 | 1011.3 |
| 20260904051015 | 81 | 248 | 3.0 | 7.0 | 0.00 | 0.10 | 0.00 | 83 | 1011.2 |
| 20260904050535 | 81 | 248 | 3.0 | 7.0 | 0.00 | 0.11 | 0.00 | 83 | 1011.3 |
| 20260904050015 | 81 | 248 | 3.0 | 7.0 | 0.00 | 0.13 | 0.00 | 83 | 1011.4 |
| 20260904045515 | 81 | 225 | 4.0 | 9.0 | 0.00 | 0.14 | 0.00 | 83 | 1011.4 |
| 20260904045015 | 81 | 270 | 4.0 | 10.0 | 0.00 | 0.14 | 0.00 | 82 | 1011.5 |
| 20260904044516 | 81 | 225 | 4.0 | 9.0 | 0.00 | 0.14 | 0.00 | 82 | 1011.6 |
| 20260904044017 | 81 | 225 | 4.0 | 9.0 | 0.00 | 0.14 | 0.00 | 82 | 1011.6 |
| 20260904043516 | 81 | 248 | 5.0 | 9.0 | 0.00 | 0.14 | 0.00 | 82 | 1011.7 |
| 20260904043016 | 81 | 225 | 3.0 | 7.0 | 0.00 | 0.14 | 0.00 | 82 | 1011.7 |
| 20260904042515 | 81 | 270 | 2.0 | 6.0 | 0.00 | 0.14 | 0.00 | 83 | 1011.9 |
| 20260904042015 | 81 | 248 | 3.0 | 9.0 | 0.00 | 0.14 | 0.00 | 83 | 1011.9 |
| 20260904041516 | 80 | 248 | 4.0 | 9.0 | 0.00 | 0.14 | 0.00 | 83 | 1011.9 |
| 20260904041015 | 80 | 248 | 5.0 | 10.0 | 0.00 | 0.14 | 0.00 | 83 | 1012.0 |
| 20260904040515 | 80 | 248 | 5.0 | 11.0 | 0.00 | 0.14 | 0.00 | 84 | 1012.0 |
| 20260904040015 | 80 | 248 | 3.0 | 6.0 | 0.00 | 0.14 | 0.14 | 84 | 1012.0 |
| 20260904035516 | 80 | 225 | 2.0 | 4.0 | 0.00 | 0.14 | 0.14 | 83 | 1012.0 |
| 20260904035016 | 81 | 225 | 2.0 | 5.0 | 0.00 | 0.14 | 0.14 | 83 | 1012.0 |
| 20260904034536 | 81 | 248 | 5.0 | 10.0 | 0.00 | 0.14 | 0.14 | 83 | 1012.0 |
| 20260904034016 | 81 | 225 | 4.0 | 8.0 | 0.00 | 0.14 | 0.14 | 82 | 1011.9 |
| 20260904033536 | 81 | 225 | 3.0 | 8.0 | 0.00 | 0.14 | 0.14 | 82 | 1011.8 |
| 20260904033016 | 81 | 225 | 3.0 | 7.0 | 0.00 | 0.14 | 0.14 | 81 | 1011.8 |
| 20260904032516 | 81 | 225 | 3.0 | 7.0 | 0.00 | 0.14 | 0.14 | 81 | 1011.7 |
| 20260904032056 | 81 | 225 | 3.0 | 7.0 | 0.00 | 0.14 | 0.14 | 81 | 1011.9 |
| 20260904031516 | 81 | 248 | 2.0 | 4.0 | 0.00 | 0.14 | 0.14 | 81 | 1011.8 |
| 20260904031016 | 81 | 270 | 2.0 | 5.0 | 0.00 | 0.14 | 0.14 | 81 | 1011.9 |
| 20260904030517 | 81 | 203 | 1.0 | 3.0 | 0.00 | 0.14 | 0.14 | 81 | 1012.0 |
| 20260904030016 | 81 | 270 | 2.0 | 5.0 | 0.00 | 0.14 | 0.14 | 81 | 1012.2 |
| 20260904025517 | 81 | 270 | 2.0 | 4.0 | 0.00 | 0.14 | 0.14 | 81 | 1012.3 |
| 20260904025016 | 81 | 248 | 2.0 | 5.0 | 0.00 | 0.14 | 0.14 | 80 | 1012.3 |
| 20260904024516 | 81 | 248 | 1.0 | 4.0 | 0.00 | 0.14 | 0.14 | 80 | 1012.3 |
| 20260904024017 | 81 | 0.0 | 2.0 | 0.00 | 0.14 | 0.14 | 80 | 1012.2 | |
| 20260904023516 | 81 | 248 | 1.0 | 3.0 | 0.00 | 0.14 | 0.14 | 80 | 1012.2 |
| 20260904023016 | 81 | 248 | 1.0 | 3.0 | 0.00 | 0.14 | 0.14 | 80 | 1012.3 |
| 20260904022537 | 81 | 0.0 | 1.0 | 0.00 | 0.14 | 0.14 | 80 | 1012.3 | |
| 20260904022016 | 81 | 0.0 | 3.0 | 0.00 | 0.14 | 0.14 | 80 | 1012.4 | |
| 20260904021516 | 81 | 248 | 1.0 | 3.0 | 0.00 | 0.14 | 0.14 | 80 | 1012.6 |
| 20260904021016 | 81 | 248 | 2.0 | 4.0 | 0.00 | 0.14 | 0.14 | 80 | 1012.7 |
| 20260904020516 | 81 | 248 | 1.0 | 4.0 | 0.00 | 0.14 | 0.14 | 80 | 1012.7 |
| 20260904020017 | 81 | 248 | 2.0 | 5.0 | 0.00 | 0.14 | 0.14 | 79 | 1012.8 |
| 20260904015516 | 81 | 248 | 2.0 | 4.0 | 0.00 | 0.14 | 0.14 | 79 | 1012.9 |
| 20260904015036 | 81 | 248 | 2.0 | 4.0 | 0.00 | 0.14 | 0.14 | 78 | 1012.9 |
| 20260904014515 | 81 | 248 | 2.0 | 4.0 | 0.00 | 0.14 | 0.14 | 78 | 1013.0 |
| 20260904014017 | 81 | 248 | 3.0 | 5.0 | 0.00 | 0.14 | 0.14 | 78 | 1012.9 |
| 20260904013516 | 81 | 225 | 2.0 | 4.0 | 0.00 | 0.14 | 0.14 | 78 | 1012.8 |
| 20260904013036 | 81 | 203 | 2.0 | 4.0 | 0.00 | 0.14 | 0.14 | 78 | 1012.8 |
| 20260904012516 | 81 | 225 | 2.0 | 5.0 | 0.00 | 0.14 | 0.14 | 77 | 1012.7 |
| 20260904012016 | 81 | 225 | 2.0 | 5.0 | 0.00 | 0.14 | 0.14 | 77 | 1012.7 |
| 20260904011516 | 81 | 225 | 1.0 | 4.0 | 0.00 | 0.14 | 0.14 | 77 | 1012.8 |
| 20260904011016 | 82 | 0.0 | 2.0 | 0.00 | 0.14 | 0.14 | 77 | 1012.7 | |
| 20260904010516 | 82 | 0.0 | 2.0 | 0.00 | 0.14 | 0.14 | 76 | 1012.7 | |
| 20260904010016 | 82 | 225 | 1.0 | 4.0 | 0.00 | 0.14 | 0.14 | 75 | 1012.7 |
| 20260904005515 | 82 | 0.0 | 2.0 | 0.00 | 0.14 | 0.14 | 75 | 1012.6 | |
| 20260904005015 | 82 | 0.0 | 0.0 | 0.00 | 0.14 | 0.14 | 74 | 1012.5 | |
| 20260904004515 | 82 | 0.0 | 0.0 | 0.00 | 0.14 | 0.14 | 74 | 1012.3 | |
| 20260904004015 | 83 | 0.0 | 0.0 | 0.00 | 0.14 | 0.14 | 73 | 1012.3 | |
| 20260904003515 | 83 | 0.0 | 0.0 | 0.00 | 0.14 | 0.14 | 73 | 1012.4 | |
| 20260904003015 | 83 | 0.0 | 2.0 | 0.00 | 0.14 | 0.14 | 72 | 1012.6 | |
| 20260904002515 | 83 | 225 | 1.0 | 3.0 | 0.00 | 0.14 | 0.14 | 71 | 1012.7 |
| 20260904002016 | 84 | 0.0 | 2.0 | 0.00 | 0.14 | 0.14 | 71 | 1012.5 | |
| 20260904001535 | 84 | 225 | 1.0 | 4.0 | 0.00 | 0.14 | 0.14 | 70 | 1012.4 |
| 20260904001015 | 84 | 225 | 1.0 | 4.0 | 0.00 | 0.14 | 0.14 | 69 | 1012.5 |
| 20260904000536 | 85 | 225 | 2.0 | 4.0 | 0.00 | 0.14 | 0.14 | 68 | 1012.4 |
| 20260904000016 | 85 | 225 | 1.0 | 5.0 | 0.00 | 0.14 | 0.14 | 67 | 1012.4 |
| 20260903235515 | 86 | 225 | 1.0 | 3.0 | 0.00 | 0.14 | 0.14 | 66 | 1012.2 |
| 20260903235015 | 86 | 225 | 2.0 | 4.0 | 0.00 | 0.14 | 0.14 | 64 | 1011.9 |
| 20260903234516 | 86 | 225 | 2.0 | 4.0 | 0.00 | 0.14 | 0.14 | 64 | 1011.9 |
| 20260903234016 | 86 | 270 | 2.0 | 5.0 | 0.00 | 0.14 | 0.14 | 63 | 1012.1 |
| 20260903233516 | 86 | 248 | 2.0 | 4.0 | 0.00 | 0.14 | 0.14 | 63 | 1012.0 |
| 20260903233015 | 86 | 248 | 1.0 | 4.0 | 0.00 | 0.14 | 0.14 | 63 | 1011.9 |
| 20260903232515 | 86 | 270 | 3.0 | 8.0 | 0.00 | 0.14 | 0.14 | 62 | 1011.8 |
| 20260903232015 | 87 | 270 | 2.0 | 6.0 | 0.00 | 0.14 | 0.14 | 62 | 1011.9 |
| 20260903231517 | 87 | 270 | 2.0 | 7.0 | 0.00 | 0.14 | 0.14 | 62 | 1011.9 |
| 20260903231015 | 87 | 270 | 3.0 | 7.0 | 0.00 | 0.14 | 0.14 | 62 | 1012.0 |
| 20260903230536 | 87 | 270 | 3.0 | 7.0 | 0.00 | 0.14 | 0.14 | 61 | 1012.0 |
| 20260903230015 | 87 | 248 | 2.0 | 5.0 | 0.00 | 0.14 | 0.14 | 61 | 1011.9 |
| 20260903225516 | 87 | 270 | 2.0 | 6.0 | 0.00 | 0.14 | 0.14 | 61 | 1012.0 |
| 20260903225017 | 87 | 248 | 3.0 | 6.0 | 0.00 | 0.14 | 0.14 | 61 | 1012.0 |
| 20260903224515 | 88 | 225 | 3.0 | 7.0 | 0.00 | 0.14 | 0.14 | 60 | 1012.0 |
| 20260903224015 | 88 | 248 | 2.0 | 5.0 | 0.00 | 0.14 | 0.14 | 60 | 1012.0 |
| 20260903223517 | 88 | 293 | 3.0 | 7.0 | 0.00 | 0.14 | 0.14 | 59 | 1012.1 |
| 20260903223037 | 88 | 248 | 2.0 | 5.0 | 0.00 | 0.14 | 0.14 | 59 | 1012.1 |
| 20260903222516 | 88 | 293 | 2.0 | 6.0 | 0.00 | 0.14 | 0.14 | 59 | 1012.2 |
| 20260903222015 | 89 | 270 | 3.0 | 7.0 | 0.00 | 0.14 | 0.14 | 59 | 1012.1 |
| 20260903221536 | 89 | 315 | 2.0 | 4.0 | 0.00 | 0.14 | 0.14 | 59 | 1012.1 |
| 20260903221015 | 88 | 248 | 3.0 | 7.0 | 0.00 | 0.14 | 0.14 | 59 | 1012.0 |
| 20260903220515 | 89 | 270 | 4.0 | 8.0 | 0.00 | 0.14 | 0.14 | 58 | 1012.0 |
| 20260903220015 | 89 | 315 | 3.0 | 6.0 | 0.00 | 0.14 | 0.14 | 57 | 1011.9 |
| 20260903215515 | 89 | 270 | 3.0 | 7.0 | 0.00 | 0.14 | 0.14 | 57 | 1012.0 |
| 20260903215015 | 90 | 248 | 4.0 | 9.0 | 0.00 | 0.14 | 0.14 | 56 | 1011.9 |
| 20260903214517 | 90 | 270 | 3.0 | 8.0 | 0.00 | 0.14 | 0.14 | 56 | 1011.8 |
| 20260903214018 | 90 | 293 | 4.0 | 9.0 | 0.00 | 0.14 | 0.14 | 56 | 1011.8 |
| 20260903213518 | 90 | 270 | 3.0 | 6.0 | 0.00 | 0.14 | 0.14 | 56 | 1011.9 |
| 20260903213038 | 90 | 293 | 4.0 | 8.0 | 0.00 | 0.14 | 0.14 | 56 | 1011.8 |
| 20260903212517 | 89 | 270 | 3.0 | 9.0 | 0.00 | 0.14 | 0.14 | 57 | 1011.9 |
| 20260903212057 | 89 | 270 | 5.0 | 8.0 | 0.00 | 0.14 | 0.14 | 57 | 1012.0 |
| 20260903211537 | 89 | 270 | 4.0 | 8.0 | 0.00 | 0.14 | 0.14 | 57 | 1012.0 |
| 20260903211037 | 90 | 270 | 3.0 | 8.0 | 0.00 | 0.14 | 0.14 | 56 | 1012.0 |
| 20260903210539 | 90 | 270 | 4.0 | 10.0 | 0.00 | 0.14 | 0.14 | 55 | 1012.1 |
| 20260903210017 | 90 | 248 | 4.0 | 10.0 | 0.00 | 0.14 | 0.14 | 55 | 1012.0 |
| 20260903205517 | 90 | 293 | 4.0 | 9.0 | 0.00 | 0.14 | 0.14 | 54 | 1012.0 |
| 20260903205017 | 91 | 270 | 4.0 | 10.0 | 0.00 | 0.14 | 0.14 | 54 | 1012.0 |
| 20260903204517 | 90 | 225 | 4.0 | 9.0 | 0.00 | 0.14 | 0.14 | 55 | 1012.0 |
| 20260903204017 | 90 | 315 | 4.0 | 8.0 | 0.00 | 0.14 | 0.14 | 55 | 1012.0 |
| 20260903203517 | 90 | 270 | 5.0 | 11.0 | 0.00 | 0.14 | 0.14 | 55 | 1012.0 |
| 20260903203017 | 90 | 270 | 6.0 | 13.0 | 0.00 | 0.14 | 0.14 | 55 | 1011.9 |
| 20260903202517 | 90 | 270 | 5.0 | 10.0 | 0.00 | 0.14 | 0.14 | 55 | 1012.0 |
| 20260903202017 | 90 | 270 | 6.0 | 10.0 | 0.00 | 0.14 | 0.14 | 55 | 1011.9 |
| 20260903201517 | 90 | 270 | 6.0 | 11.0 | 0.00 | 0.14 | 0.14 | 55 | 1011.9 |
| 20260903201017 | 90 | 270 | 4.0 | 11.0 | 0.00 | 0.14 | 0.14 | 55 | 1011.9 |
| 20260903200538 | 90 | 270 | 6.0 | 11.0 | 0.00 | 0.14 | 0.14 | 55 | 1012.0 |
| 20260903200018 | 90 | 248 | 3.0 | 10.0 | 0.00 | 0.14 | 0.14 | 56 | 1012.1 |
| 20260903195517 | 90 | 225 | 3.0 | 6.0 | 0.00 | 0.14 | 0.14 | 57 | 1012.2 |
| 20260903195018 | 89 | 270 | 2.0 | 6.0 | 0.00 | 0.14 | 0.14 | 57 | 1012.2 |
| 20260903194537 | 89 | 0 | 3.0 | 10.0 | 0.00 | 0.14 | 0.14 | 58 | 1012.2 |
| 20260903194015 | 89 | 248 | 3.0 | 8.0 | 0.00 | 0.14 | 0.14 | 59 | 1012.2 |
| 20260903193540 | 89 | 270 | 5.0 | 12.0 | 0.00 | 0.14 | 0.14 | 58 | 1012.3 |
| 20260903193037 | 89 | 248 | 4.0 | 9.0 | 0.00 | 0.14 | 0.14 | 59 | 1012.4 |
| 20260903192517 | 88 | 293 | 2.0 | 7.0 | 0.00 | 0.14 | 0.14 | 59 | 1012.5 |
| 20260903192017 | 89 | 293 | 4.0 | 10.0 | 0.00 | 0.14 | 0.14 | 59 | 1012.5 |
| 20260903191517 | 89 | 248 | 4.0 | 11.0 | 0.00 | 0.14 | 0.14 | 59 | 1012.6 |
| 20260903191017 | 88 | 248 | 5.0 | 11.0 | 0.00 | 0.14 | 0.14 | 59 | 1012.6 |
| 20260903190517 | 88 | 270 | 5.0 | 12.0 | 0.00 | 0.14 | 0.14 | 60 | 1012.7 |
| 20260903190037 | 88 | 270 | 5.0 | 13.0 | 0.00 | 0.14 | 0.14 | 60 | 1012.7 |
| 20260903185517 | 88 | 270 | 6.0 | 11.0 | 0.00 | 0.15 | 0.14 | 61 | 1012.9 |
| 20260903185018 | 88 | 270 | 6.0 | 12.0 | 0.00 | 0.15 | 0.14 | 60 | 1012.9 |
| 20260903184518 | 88 | 248 | 7.0 | 15.0 | 0.00 | 0.15 | 0.14 | 60 | 1013.0 |
| 20260903184018 | 87 | 225 | 7.0 | 15.0 | 0.00 | 0.15 | 0.14 | 61 | 1013.1 |
| 20260903183517 | 87 | 270 | 6.0 | 13.0 | 0.00 | 0.15 | 0.14 | 61 | 1013.0 |
| 20260903183037 | 87 | 270 | 5.0 | 12.0 | 0.00 | 0.15 | 0.14 | 61 | 1013.1 |
| 20260903182517 | 87 | 270 | 8.0 | 14.0 | 0.00 | 0.15 | 0.14 | 61 | 1013.1 |
| 20260903182017 | 87 | 315 | 6.0 | 11.0 | 0.00 | 0.15 | 0.14 | 61 | 1013.1 |
| 20260903181517 | 87 | 225 | 5.0 | 10.0 | 0.00 | 0.15 | 0.14 | 62 | 1013.1 |
| 20260903181017 | 87 | 270 | 7.0 | 15.0 | 0.00 | 0.15 | 0.14 | 63 | 1013.2 |
| 20260903180517 | 86 | 270 | 6.0 | 11.0 | 0.00 | 0.15 | 0.14 | 63 | 1013.4 |
| 20260903180017 | 86 | 270 | 5.0 | 11.0 | 0.00 | 0.15 | 0.14 | 64 | 1013.4 |
| 20260903175517 | 86 | 248 | 5.0 | 10.0 | 0.00 | 0.15 | 0.14 | 65 | 1013.6 |
| 20260903175058 | 86 | 270 | 6.0 | 12.0 | 0.00 | 0.15 | 0.14 | 64 | 1013.6 |
| 20260903174537 | 85 | 270 | 7.0 | 12.0 | 0.00 | 0.15 | 0.14 | 65 | 1013.6 |
| 20260903174037 | 85 | 270 | 7.0 | 14.0 | 0.00 | 0.15 | 0.14 | 65 | 1013.7 |
| 20260903173517 | 86 | 270 | 7.0 | 12.0 | 0.00 | 0.15 | 0.14 | 64 | 1013.6 |
| 20260903173017 | 85 | 270 | 5.0 | 11.0 | 0.00 | 0.15 | 0.14 | 65 | 1013.6 |
| 20260903172517 | 85 | 270 | 4.0 | 9.0 | 0.00 | 0.15 | 0.14 | 66 | 1013.8 |
| 20260903172017 | 84 | 270 | 6.0 | 12.0 | 0.00 | 0.15 | 0.14 | 66 | 1014.0 |
| 20260903171517 | 84 | 270 | 7.0 | 13.0 | 0.00 | 0.15 | 0.14 | 67 | 1014.0 |
| 20260903171018 | 84 | 270 | 8.0 | 15.0 | 0.00 | 0.15 | 0.14 | 67 | 1014.1 |
| 20260903170538 | 84 | 248 | 5.0 | 9.0 | 0.00 | 0.15 | 0.14 | 68 | 1014.1 |
| 20260903170017 | 83 | 270 | 6.0 | 12.0 | 0.00 | 0.15 | 0.14 | 68 | 1014.2 |
| 20260903165518 | 83 | 270 | 8.0 | 13.0 | 0.00 | 0.15 | 0.14 | 67 | 1014.3 |
| 20260903165018 | 84 | 293 | 7.0 | 13.0 | 0.00 | 0.15 | 0.14 | 65 | 1014.3 |
| 20260903164517 | 84 | 270 | 6.0 | 14.0 | 0.00 | 0.15 | 0.14 | 67 | 1014.4 |
| 20260903164017 | 84 | 270 | 8.0 | 18.0 | 0.00 | 0.15 | 0.14 | 67 | 1014.5 |
| 20260903163517 | 84 | 225 | 7.0 | 20.0 | 0.00 | 0.15 | 0.14 | 67 | 1014.6 |
| 20260903163037 | 84 | 270 | 7.0 | 13.0 | 0.00 | 0.15 | 0.14 | 68 | 1014.5 |
| 20260903162517 | 83 | 270 | 7.0 | 15.0 | 0.00 | 0.15 | 0.14 | 69 | 1014.5 |
| 20260903162017 | 83 | 270 | 9.0 | 15.0 | 0.00 | 0.15 | 0.14 | 70 | 1014.6 |
| 20260903161537 | 83 | 225 | 7.0 | 14.0 | 0.00 | 0.15 | 0.14 | 71 | 1014.6 |
| 20260903161017 | 82 | 270 | 5.0 | 12.0 | 0.00 | 0.15 | 0.14 | 72 | 1014.6 |
| 20260903160517 | 81 | 293 | 7.0 | 13.0 | 0.00 | 0.15 | 0.14 | 73 | 1014.7 |
| 20260903160017 | 81 | 270 | 7.0 | 12.0 | 0.00 | 0.15 | 0.14 | 73 | 1014.6 |
| 20260903155517 | 81 | 248 | 5.0 | 13.0 | 0.00 | 0.15 | 0.14 | 74 | 1014.8 |
| 20260903155038 | 81 | 293 | 7.0 | 11.0 | 0.00 | 0.15 | 0.14 | 74 | 1015.0 |